Winfield, KS

2:03 AM CDT on September 22, 2017 (GMT -0500)
Strother

Weather History for KWLD - February, 2013

Change the Weather History Date:

Wednesday, February 20, 2013

  Actual Average Record
Temperature  
Mean Temperature 30 °F -  
Max Temperature 34 °F 49 °F 75 °F (2016)
Min Temperature 26 °F 29 °F 21 °F (2006)
Degree Days  
Heating Degree Days 35    
Moisture  
Dew Point 25 °F    
Average Humidity 85    
Maximum Humidity 96    
Minimum Humidity 40    
Precipitation  
Precipitation 0.12 in - - ()
Sea Level Pressure  
Sea Level Pressure 30.15 in    
Wind  
Wind Speed 12 mph (East)    
Max Wind Speed 17 mph    
Max Gust Speed 25 mph    
Visibility 4 miles    
Events Fog , Snow    
Averages and records for this station are not official NWS values.
T = Trace of Precipitation, MM = Missing Value Source: NWS Daily Summary

Daily Weather History Graph

Daily Weather History Graph

Search for Another Location

Airport or City:

Trip Planner

Search our weather history database for the weather conditions in past years. The results will help you decide how hot, cold, wet, or windy it might be!

Date:

Astronomy

Feb. 20, 2013 Rise Set
Actual Time 7:10 AM CST 6:13 PM CST
Civil Twilight 6:44 AM CST 6:39 PM CST
Nautical Twilight 6:13 AM CST 7:10 PM CST
Astronomical Twilight 5:43 AM CST 7:40 PM CST
Moon 1:39 PM CST (2/20) 3:27 AM CST (2/20)
Length of Visible Light 11h 55m
Length of Day
11h 02m
Waxing Gibbous, 76% of the Moon is Illuminated
Feb 20
Waxing Gibbous
Feb 25
Full
Mar 4
Last Quarter
Mar 11
New
Mar 19
First Quarter

Hourly Weather History & Observations

Time (CST) Temp. Windchill Dew Point Humidity Pressure Visibility Wind Dir Wind Speed Gust Speed Precip Events Conditions
12:54 AM 34.0 °F 26.0 °F 12.9 °F 42% 30.27 in 10.0 mi East 10.4 mph - N/A   Clear
1:54 AM 33.1 °F 23.9 °F 12.0 °F 42% 30.26 in 10.0 mi East 12.7 mph - N/A   Scattered Clouds
2:54 AM 32.0 °F 23.6 °F 10.0 °F 40% 30.24 in 10.0 mi East 10.4 mph 19.6 mph N/A   Mostly Cloudy
3:54 AM 32.0 °F 23.6 °F 10.0 °F 40% 30.24 in 10.0 mi East 10.4 mph - N/A   Overcast
4:54 AM 30.9 °F 21.7 °F 10.0 °F 42% 30.23 in 10.0 mi East 11.5 mph 19.6 mph N/A   Overcast
5:54 AM 30.0 °F 20.0 °F 10.0 °F 43% 30.25 in 10.0 mi East 12.7 mph 21.9 mph N/A   Overcast
6:54 AM 30.9 °F 24.3 °F 10.9 °F 43% 30.28 in 10.0 mi SE 6.9 mph - N/A   Overcast
7:54 AM 28.0 °F 18.6 °F 21.0 °F 75% 30.30 in 2.5 mi ESE 10.4 mph 19.6 mph 0.00 in Snow Light Snow
8:05 AM 26.6 °F 17.5 °F 21.2 °F 80% 30.27 in 1.5 mi ESE 9.2 mph - 0.00 in Snow Light Snow
8:16 AM 26.6 °F 16.8 °F 23.0 °F 86% 30.27 in 0.5 mi ESE 10.4 mph - 0.00 in Fog , Snow Snow
9:12 AM 26.6 °F 16.8 °F 24.8 °F 93% 30.24 in 0.8 mi East 10.4 mph - 0.00 in Snow Light Snow
9:22 AM 26.6 °F 17.5 °F 24.8 °F 93% 30.24 in 0.5 mi East 9.2 mph - 0.01 in Fog , Snow Snow
9:54 AM 26.1 °F 15.6 °F 25.0 °F 96% 30.27 in 0.5 mi East 11.5 mph - 0.03 in Fog , Snow Snow
10:00 AM 26.6 °F 16.8 °F 24.8 °F 93% 30.23 in 0.8 mi East 10.4 mph - 0.00 in Snow Light Snow
10:11 AM 26.6 °F 17.5 °F 24.8 °F 93% 30.22 in 0.5 mi East 9.2 mph - 0.00 in Fog , Snow Snow
10:38 AM 26.6 °F 16.2 °F 24.8 °F 93% 30.22 in 1.0 mi East 11.5 mph 18.4 mph 0.01 in Snow Light Snow
10:54 AM 27.0 °F 16.7 °F 26.1 °F 96% 30.25 in 0.8 mi East 11.5 mph - 0.02 in Snow Light Snow
11:00 AM 28.4 °F 17.5 °F 26.6 °F 93% 30.21 in 0.5 mi East 13.8 mph - 0.00 in Fog , Snow Snow
11:14 AM 28.4 °F 18.0 °F 26.6 °F 93% 30.20 in 0.8 mi East 12.7 mph - 0.01 in Snow Light Snow
11:21 AM 28.4 °F 18.0 °F 26.6 °F 93% 30.20 in 1.0 mi East 12.7 mph 20.7 mph 0.01 in Snow Light Snow
11:28 AM 28.4 °F 18.5 °F 26.6 °F 93% 30.20 in 1.2 mi East 11.5 mph 20.7 mph 0.01 in Snow Light Snow
11:50 AM 28.4 °F 17.5 °F 26.6 °F 93% 30.19 in 2.0 mi East 13.8 mph - 0.01 in Snow Light Snow
11:54 AM 28.9 °F 17.7 °F 26.1 °F 89% 30.22 in 2.0 mi East 15.0 mph - 0.01 in Snow Light Snow
12:01 PM 28.4 °F 17.5 °F 26.6 °F 93% 30.18 in 1.5 mi East 13.8 mph - 0.00 in Snow Light Snow
12:34 PM 28.4 °F 17.0 °F 26.6 °F 93% 30.18 in 0.5 mi East 15.0 mph - 0.00 in Fog , Snow Snow
12:43 PM 28.4 °F 17.5 °F 26.6 °F 93% 30.18 in 0.5 mi East 13.8 mph - 0.01 in Fog , Snow Snow
12:54 PM 28.9 °F 18.2 °F 27.0 °F 92% 30.20 in 0.5 mi East 13.8 mph - 0.01 in Fog , Snow Snow
1:21 PM 28.4 °F 17.0 °F 26.6 °F 93% 30.15 in 0.8 mi East 15.0 mph 20.7 mph 0.01 in Snow Light Snow
1:35 PM 28.4 °F 18.0 °F 26.6 °F 93% 30.14 in 1.0 mi East 12.7 mph 21.9 mph 0.01 in Snow Light Snow
1:44 PM 28.4 °F 18.5 °F 26.6 °F 93% 30.13 in 1.5 mi East 11.5 mph - 0.01 in Snow Light Snow
1:54 PM 30.0 °F 20.0 °F 28.0 °F 92% 30.16 in 1.8 mi East 12.7 mph - 0.01 in Snow Light Snow
2:01 PM 30.2 °F 18.5 °F 26.6 °F 86% 30.12 in 2.0 mi East 17.3 mph 23.0 mph 0.00 in Snow Light Snow
2:11 PM 30.2 °F 19.3 °F 26.6 °F 86% 30.11 in 1.8 mi East 15.0 mph - 0.00 in Snow Light Snow
2:32 PM 30.2 °F 18.9 °F 28.4 °F 93% 30.09 in 2.5 mi East 16.1 mph - 0.00 in Snow Light Snow
2:46 PM 30.2 °F 19.3 °F 28.4 °F 93% 30.09 in 3.0 mi East 15.0 mph - 0.00 in Snow Light Snow
2:54 PM 30.9 °F 20.2 °F 28.0 °F 89% 30.12 in 5.0 mi East 15.0 mph - 0.00 in   Overcast
3:05 PM 30.2 °F 18.9 °F 28.4 °F 93% 30.08 in 7.0 mi East 16.1 mph 21.9 mph N/A   Overcast
3:54 PM 32.0 °F 21.2 °F 28.9 °F 88% 30.09 in 10.0 mi East 16.1 mph 25.3 mph N/A   Overcast
4:54 PM 32.0 °F 21.6 °F 30.0 °F 92% 30.08 in 10.0 mi East 15.0 mph 19.6 mph N/A   Overcast
5:54 PM 33.1 °F 23.9 °F 30.0 °F 89% 30.05 in 9.0 mi East 12.7 mph - 0.00 in   Overcast
6:17 PM 33.8 °F 23.9 °F 30.2 °F 87% 30.02 in 4.0 mi East 15.0 mph 21.9 mph 0.00 in Snow Light Snow
6:54 PM 33.1 °F 25.5 °F 30.9 °F 92% 30.07 in 3.0 mi East 9.2 mph - 0.00 in Snow Light Snow
7:13 PM 33.8 °F 25.3 °F 30.2 °F 87% 30.04 in 2.5 mi ESE 11.5 mph 18.4 mph 0.00 in Snow Light Snow
7:24 PM 33.8 °F 24.8 °F 30.2 °F 87% 30.03 in 4.0 mi East 12.7 mph - 0.00 in Snow Light Snow
7:34 PM 33.8 °F 23.9 °F 30.2 °F 87% 30.03 in 4.0 mi East 15.0 mph - 0.01 in Snow Light Snow
7:54 PM 32.0 °F 21.2 °F 27.0 °F 82% 30.07 in 3.0 mi East 16.1 mph 25.3 mph 0.01 in Snow Light Snow
8:23 PM 30.2 °F 18.9 °F 28.4 °F 93% 30.05 in 2.0 mi East 16.1 mph 21.9 mph 0.00 in Snow Light Snow
8:34 PM 30.2 °F 20.8 °F 26.6 °F 86% 30.05 in 1.5 mi East 11.5 mph - 0.00 in Snow Light Snow
8:54 PM 28.9 °F 18.6 °F 27.0 °F 92% 30.09 in 1.2 mi East 12.7 mph 19.6 mph 0.01 in Snow Light Snow
9:01 PM 28.4 °F 18.5 °F 26.6 °F 93% 30.06 in 2.0 mi East 11.5 mph 20.7 mph 0.00 in Snow Light Snow
9:27 PM 28.4 °F 18.0 °F 26.6 °F 93% 30.05 in 2.5 mi East 12.7 mph - 0.00 in Snow Light Snow
9:33 PM 28.4 °F 20.4 °F 26.6 °F 93% 30.05 in 3.0 mi East 8.1 mph - 0.00 in Snow Light Snow
9:38 PM 28.4 °F 18.5 °F 26.6 °F 93% 30.05 in 2.5 mi East 11.5 mph - 0.00 in Snow Light Snow
9:42 PM 28.4 °F 18.0 °F 26.6 °F 93% 30.04 in 1.8 mi East 12.7 mph 17.3 mph 0.01 in Snow Light Snow
9:54 PM 28.0 °F 16.1 °F 26.1 °F 92% 30.07 in 2.0 mi East 16.1 mph 24.2 mph 0.01 in Snow Light Snow
10:08 PM 28.4 °F 18.5 °F 26.6 °F 93% 30.02 in 1.2 mi East 11.5 mph 21.9 mph 0.00 in Snow Light Snow
10:24 PM 28.4 °F 18.0 °F 26.6 °F 93% 30.03 in 3.0 mi East 12.7 mph - 0.01 in Snow Light Snow
10:54 PM 28.0 °F 17.5 °F 25.0 °F 88% 30.06 in 7.0 mi East 12.7 mph 20.7 mph 0.01 in   Overcast
11:54 PM 28.0 °F 17.0 °F 25.0 °F 88% 30.04 in 10.0 mi East 13.8 mph 23.0 mph N/A   Overcast